Location: Newark
(39.5667°N, 8.9833°E)
Time: 05:42:38
(UTC+00:00)

LightSail 2 - Pass Details

Date: 27 September 2019
Orbit: 707 x 722 km, 24.0° (Epoch: 18 October)

Event Time Altitude Azimuth Distance (km) Brightness Sun altitude
Exits shadow 04:17:29 - 220° (SW) 2,329 7.4 -12.1°
Reaches altitude 10° 04:18:26 10° 211° (SSW) 2,163 7.3 -11.9°
Maximum altitude 04:20:28 12° 187° (S) 2,008 7.3 -11.5°
Drops below altitude 10° 04:22:29 10° 163° (SSE) 2,161 7.8 -11.1°
Sets 04:26:23 0° 134° (SE) 3,078 9.0 -10.4°
